Time,TemperatureF,DewpointF,PressureIn,WindDirection,WindDirectionDegrees,WindSpeedMPH,WindSpeedGustMPH,Humidity,HourlyPrecipIn,Conditions,Clouds,dailyrainin,SoftwareType,DateUTC
2013-02-20 00:00:00,31.6,30.6,29.70,WSW,240,3.0,4.0,96,0.00,,,0.00,meteohub,2013-02-20 05:00:00,
2013-02-20 00:01:00,31.6,30.6,29.70,WSW,240,2.0,5.0,96,0.00,,,0.00,meteohub,2013-02-20 05:01:00,
2013-02-20 00:06:00,31.5,30.4,29.70,WSW,240,4.0,5.0,96,0.00,,,0.00,meteohub,2013-02-20 05:06:00,
2013-02-20 00:11:00,31.5,30.4,29.70,WSW,240,3.0,4.0,96,0.00,,,0.00,meteohub,2013-02-20 05:11:00,
2013-02-20 00:16:00,31.3,30.2,29.70,WSW,240,7.0,7.0,96,0.00,,,0.00,meteohub,2013-02-20 05:16:00,
2013-02-20 00:21:00,31.3,30.2,29.70,WSW,240,3.0,7.0,96,0.00,,,0.00,meteohub,2013-02-20 05:21:00,
2013-02-20 00:26:00,30.9,29.8,29.70,WSW,240,4.0,7.0,96,0.00,,,0.00,meteohub,2013-02-20 05:26:00,
2013-02-20 00:31:00,30.7,29.7,29.70,WSW,240,3.0,7.0,96,0.00,,,0.00,meteohub,2013-02-20 05:31:00,
2013-02-20 00:36:00,30.6,29.5,29.70,WSW,240,8.0,8.0,96,0.00,,,0.00,meteohub,2013-02-20 05:36:00,
2013-02-20 00:41:00,29.8,28.8,29.70,WSW,240,5.0,11.0,96,0.00,,,0.00,meteohub,2013-02-20 05:41:00,
2013-02-20 00:46:00,29.5,28.4,29.70,WSW,240,6.0,11.0,96,0.00,,,0.00,meteohub,2013-02-20 05:46:00,
2013-02-20 00:51:00,28.9,27.9,29.70,WSW,240,4.0,11.0,96,0.00,,,0.00,meteohub,2013-02-20 05:51:00,
2013-02-20 00:56:00,28.8,27.7,29.70,WSW,240,6.0,8.0,96,0.00,,,0.00,meteohub,2013-02-20 05:56:00,
2013-02-20 01:01:00,28.0,27.0,29.70,WSW,240,4.0,10.0,96,0.00,,,0.00,meteohub,2013-02-20 06:01:00,
2013-02-20 01:06:00,27.9,26.8,29.70,WSW,240,3.0,10.0,96,0.00,,,0.00,meteohub,2013-02-20 06:06:00,
2013-02-20 01:11:00,27.9,26.8,29.71,WSW,240,4.0,10.0,96,0.00,,,0.00,meteohub,2013-02-20 06:11:00,
2013-02-20 01:16:00,27.7,26.6,29.71,WSW,240,5.0,8.0,96,0.00,,,0.00,meteohub,2013-02-20 06:16:00,
2013-02-20 01:21:00,27.5,26.6,29.71,WSW,240,6.0,7.0,96,0.00,,,0.00,meteohub,2013-02-20 06:21:00,
2013-02-20 01:26:00,27.3,26.1,29.71,WSW,240,6.0,9.0,95,0.00,,,0.00,meteohub,2013-02-20 06:26:00,
2013-02-20 01:31:00,27.1,25.9,29.71,WSW,240,4.0,9.0,95,0.00,,,0.00,meteohub,2013-02-20 06:31:00,
2013-02-20 01:36:00,27.3,26.4,29.71,WSW,240,5.0,9.0,96,0.00,,,0.00,meteohub,2013-02-20 06:36:00,
2013-02-20 01:41:00,27.3,26.4,29.72,WSW,240,4.0,9.0,96,0.00,,,0.00,meteohub,2013-02-20 06:41:00,
2013-02-20 01:46:00,27.3,26.4,29.72,WSW,240,4.0,9.0,96,0.00,,,0.00,meteohub,2013-02-20 06:46:00,
2013-02-20 01:51:00,27.1,26.2,29.72,WSW,240,6.0,9.0,96,0.00,,,0.00,meteohub,2013-02-20 06:51:00,
2013-02-20 01:56:00,27.9,26.8,29.72,NW,325,0.0,8.0,96,0.00,,,0.00,meteohub,2013-02-20 06:56:00,
2013-02-20 02:01:00,27.7,26.6,29.72,West,280,1.0,8.0,96,0.00,,,0.00,meteohub,2013-02-20 07:01:00,
2013-02-20 02:06:00,27.7,26.6,29.72,West,274,1.0,8.0,96,0.00,,,0.00,meteohub,2013-02-20 07:06:00,
2013-02-20 02:11:00,27.5,26.6,29.72,NW,319,1.0,4.0,96,0.00,,,0.00,meteohub,2013-02-20 07:11:00,
2013-02-20 02:16:00,27.3,26.4,29.72,WNW,284,2.0,4.0,96,0.00,,,0.00,meteohub,2013-02-20 07:16:00,
2013-02-20 02:21:00,27.1,26.2,29.72,NNW,340,0.0,3.0,96,0.00,,,0.00,meteohub,2013-02-20 07:21:00,
2013-02-20 02:26:00,27.1,26.2,29.73,North,355,0.0,3.0,96,0.00,,,0.00,meteohub,2013-02-20 07:26:00,
2013-02-20 02:31:00,27.1,26.2,29.73,NNW,348,0.0,3.0,96,0.00,,,0.00,meteohub,2013-02-20 07:31:00,
2013-02-20 02:36:00,27.0,26.1,29.73,NW,305,0.0,4.0,96,0.00,,,0.00,meteohub,2013-02-20 07:36:00,
2013-02-20 02:41:00,26.8,25.9,29.73,West,273,2.0,4.0,96,0.00,,,0.00,meteohub,2013-02-20 07:41:00,
2013-02-20 02:46:00,26.4,25.5,29.73,NW,312,2.0,4.0,96,0.00,,,0.00,meteohub,2013-02-20 07:46:00,
2013-02-20 02:51:00,26.4,25.5,29.73,West,273,1.0,3.0,96,0.00,,,0.00,meteohub,2013-02-20 07:51:00,
2013-02-20 02:56:00,26.2,25.0,29.73,SW,235,0.0,3.0,95,0.00,,,0.00,meteohub,2013-02-20 07:56:00,
2013-02-20 03:05:00,25.9,24.6,29.73,West,270,0.0,5.0,95,0.00,,,0.00,meteohub,2013-02-20 08:05:00,
2013-02-20 03:10:00,25.9,24.6,29.72,West,262,1.0,5.0,95,0.00,,,0.00,meteohub,2013-02-20 08:10:00,
2013-02-20 03:15:00,25.7,24.4,29.72,WNW,287,0.0,6.0,95,0.00,,,0.00,meteohub,2013-02-20 08:15:00,
2013-02-20 03:20:00,25.5,24.3,29.71,NW,318,3.0,6.0,95,0.00,,,0.00,meteohub,2013-02-20 08:20:00,
2013-02-20 03:25:00,25.2,23.7,29.72,West,280,1.0,5.0,94,0.00,,,0.00,meteohub,2013-02-20 08:25:00,
2013-02-20 03:30:00,25.0,23.5,29.72,West,278,0.0,6.0,94,0.00,,,0.00,meteohub,2013-02-20 08:30:00,
2013-02-20 03:35:00,24.6,23.2,29.72,WSW,245,1.0,6.0,94,0.00,,,0.00,meteohub,2013-02-20 08:35:00,
2013-02-20 03:40:00,24.4,23.0,29.72,SW,225,0.0,6.0,94,0.00,,,0.00,meteohub,2013-02-20 08:40:00,
2013-02-20 03:45:00,24.3,22.5,29.73,WSW,244,0.0,4.0,93,0.00,,,0.00,meteohub,2013-02-20 08:45:00,
2013-02-20 03:50:00,23.9,21.9,29.73,NNW,345,1.0,4.0,92,0.00,,,0.00,meteohub,2013-02-20 08:50:00,
2013-02-20 03:55:00,23.7,21.7,29.73,SW,222,0.0,4.0,92,0.00,,,0.00,meteohub,2013-02-20 08:55:00,
2013-02-20 04:00:00,23.5,21.6,29.72,North,355,0.0,4.0,92,0.00,,,0.00,meteohub,2013-02-20 09:00:00,
2013-02-20 04:05:00,23.4,21.4,29.73,WNW,301,2.0,4.0,92,0.00,,,0.00,meteohub,2013-02-20 09:05:00,
2013-02-20 04:10:00,23.4,21.4,29.73,North,355,1.0,4.0,92,0.00,,,0.00,meteohub,2013-02-20 09:10:00,
2013-02-20 04:15:00,23.2,21.2,29.73,West,281,2.0,5.0,92,0.00,,,0.00,meteohub,2013-02-20 09:15:00,
2013-02-20 04:20:00,23.0,21.0,29.73,WSW,256,1.0,6.0,92,0.00,,,0.00,meteohub,2013-02-20 09:20:00,
2013-02-20 04:25:00,22.8,20.8,29.74,East,86,0.0,6.0,92,0.00,,,0.00,meteohub,2013-02-20 09:25:00,
2013-02-20 04:30:00,22.8,20.7,29.73,SSW,207,0.0,6.0,91,0.00,,,0.00,meteohub,2013-02-20 09:30:00,
2013-02-20 04:35:00,22.6,20.5,29.74,NW,315,0.0,5.0,91,0.00,,,0.00,meteohub,2013-02-20 09:35:00,
2013-02-20 04:40:00,22.6,20.5,29.74,NW,321,0.0,5.0,91,0.00,,,0.00,meteohub,2013-02-20 09:40:00,
2013-02-20 04:45:00,22.5,20.3,29.74,NW,311,0.0,5.0,91,0.00,,,0.00,meteohub,2013-02-20 09:45:00,
2013-02-20 04:50:00,22.5,20.3,29.74,NE,44,1.0,5.0,91,0.00,,,0.00,meteohub,2013-02-20 09:50:00,
2013-02-20 04:55:00,22.5,20.5,29.75,NW,311,0.0,4.0,92,0.00,,,0.00,meteohub,2013-02-20 09:55:00,
2013-02-20 05:00:00,22.5,20.5,29.75,WNW,288,0.0,4.0,92,0.00,,,0.00,meteohub,2013-02-20 10:00:00,
2013-02-20 05:05:00,22.3,20.3,29.75,WNW,290,0.0,4.0,92,0.00,,,0.00,meteohub,2013-02-20 10:05:00,
2013-02-20 05:11:00,22.3,20.3,29.74,WNW,283,0.0,2.0,92,0.00,,,0.00,meteohub,2013-02-20 10:11:00,
2013-02-20 05:16:00,22.3,20.3,29.75,WNW,296,0.0,3.0,92,0.00,,,0.00,meteohub,2013-02-20 10:16:00,
2013-02-20 05:21:00,22.3,20.3,29.75,West,268,1.0,3.0,92,0.00,,,0.00,meteohub,2013-02-20 10:21:00,
2013-02-20 05:26:00,22.3,20.3,29.74,WNW,284,0.0,3.0,92,0.00,,,0.00,meteohub,2013-02-20 10:26:00,
2013-02-20 05:31:00,22.3,20.3,29.74,WNW,288,1.0,3.0,92,0.00,,,0.00,meteohub,2013-02-20 10:31:00,
2013-02-20 05:36:00,22.1,19.9,29.74,West,267,3.0,3.0,91,0.00,,,0.00,meteohub,2013-02-20 10:36:00,
2013-02-20 05:41:00,22.1,19.9,29.74,WNW,292,0.0,3.0,91,0.00,,,0.00,meteohub,2013-02-20 10:41:00,
2013-02-20 05:46:00,22.1,20.1,29.74,NW,324,0.0,4.0,92,0.00,,,0.00,meteohub,2013-02-20 10:46:00,
2013-02-20 05:51:00,22.1,20.1,29.74,West,267,1.0,4.0,92,0.00,,,0.00,meteohub,2013-02-20 10:51:00,
2013-02-20 05:56:00,21.9,19.9,29.74,NW,325,0.0,4.0,92,0.00,,,0.00,meteohub,2013-02-20 10:56:00,
2013-02-20 06:01:00,21.9,19.9,29.74,NNW,333,0.0,3.0,92,0.00,,,0.00,meteohub,2013-02-20 11:01:00,
2013-02-20 06:06:00,21.9,19.9,29.73,North,355,0.0,3.0,92,0.00,,,0.00,meteohub,2013-02-20 11:06:00,
2013-02-20 06:11:00,21.9,19.8,29.74,NW,306,0.0,2.0,91,0.00,,,0.00,meteohub,2013-02-20 11:11:00,
2013-02-20 06:16:00,21.9,19.8,29.74,West,269,0.0,2.0,91,0.00,,,0.00,meteohub,2013-02-20 11:16:00,
2013-02-20 06:21:00,21.9,19.8,29.73,WNW,303,1.0,2.0,91,0.00,,,0.00,meteohub,2013-02-20 11:21:00,
2013-02-20 06:26:00,21.7,19.6,29.73,West,261,1.0,2.0,91,0.00,,,0.00,meteohub,2013-02-20 11:26:00,
2013-02-20 06:31:00,21.7,19.6,29.73,WSW,254,0.0,3.0,91,0.00,,,0.00,meteohub,2013-02-20 11:31:00,
2013-02-20 06:36:00,21.7,19.6,29.73,WSW,255,1.0,3.0,91,0.00,,,0.00,meteohub,2013-02-20 11:36:00,
2013-02-20 06:41:00,21.7,19.6,29.74,West,276,1.0,3.0,91,0.00,,,0.00,meteohub,2013-02-20 11:41:00,
2013-02-20 06:46:00,21.6,19.4,29.74,WNW,299,1.0,3.0,91,0.00,,,0.00,meteohub,2013-02-20 11:46:00,
2013-02-20 06:51:00,21.6,19.4,29.74,NNW,346,2.0,4.0,91,0.00,,,0.00,meteohub,2013-02-20 11:51:00,
2013-02-20 06:56:00,21.6,19.4,29.73,SSW,204,5.0,5.0,91,0.00,,,0.00,meteohub,2013-02-20 11:56:00,
2013-02-20 07:01:00,21.6,19.0,29.73,WNW,299,2.0,7.0,90,0.00,,,0.00,meteohub,2013-02-20 12:01:00,
2013-02-20 07:06:00,21.4,18.9,29.74,WSW,254,0.0,7.0,90,0.00,,,0.00,meteohub,2013-02-20 12:06:00,
2013-02-20 07:11:00,21.4,18.9,29.74,WSW,254,0.0,7.0,90,0.00,,,0.00,meteohub,2013-02-20 12:11:00,
2013-02-20 07:16:00,21.4,18.9,29.74,West,263,0.0,4.0,90,0.00,,,0.00,meteohub,2013-02-20 12:16:00,
2013-02-20 07:21:00,21.4,18.9,29.74,West,263,0.0,2.0,90,0.00,,,0.00,meteohub,2013-02-20 12:21:00,
2013-02-20 07:26:00,21.4,18.9,29.74,West,261,2.0,2.0,90,0.00,,,0.00,meteohub,2013-02-20 12:26:00,
2013-02-20 07:31:00,21.4,18.9,29.74,WSW,248,3.0,4.0,90,0.00,,,0.00,meteohub,2013-02-20 12:31:00,
2013-02-20 07:36:00,21.4,18.9,29.74,SSW,205,0.0,6.0,90,0.00,,,0.00,meteohub,2013-02-20 12:36:00,
2013-02-20 07:41:00,21.4,18.9,29.75,West,270,0.0,6.0,90,0.00,,,0.00,meteohub,2013-02-20 12:41:00,
2013-02-20 07:46:00,21.4,18.9,29.75,WSW,240,3.0,6.0,90,0.00,,,0.00,meteohub,2013-02-20 12:46:00,
2013-02-20 07:51:00,21.4,18.9,29.75,North,355,1.0,4.0,90,0.00,,,0.00,meteohub,2013-02-20 12:51:00,
2013-02-20 07:56:00,21.6,19.0,29.75,West,271,0.0,4.0,90,0.00,,,0.00,meteohub,2013-02-20 12:56:00,
2013-02-20 08:01:00,21.6,19.0,29.75,SSW,213,2.0,3.0,90,0.00,,,0.00,meteohub,2013-02-20 13:01:00,
2013-02-20 08:06:00,21.6,19.0,29.75,NNW,331,1.0,4.0,90,0.00,,,0.00,meteohub,2013-02-20 13:06:00,
2013-02-20 08:11:00,21.6,19.0,29.75,South,190,1.0,4.0,90,0.00,,,0.00,meteohub,2013-02-20 13:11:00,
2013-02-20 08:16:00,21.6,19.0,29.74,WSW,251,1.0,4.0,90,0.00,,,0.00,meteohub,2013-02-20 13:16:00,
2013-02-20 08:21:00,21.6,19.4,29.75,West,267,1.0,4.0,91,0.00,,,0.00,meteohub,2013-02-20 13:21:00,
2013-02-20 08:26:00,21.6,19.0,29.75,WSW,240,3.0,4.0,90,0.00,,,0.00,meteohub,2013-02-20 13:26:00,
2013-02-20 08:31:00,21.4,18.9,29.75,WNW,285,0.0,8.0,90,0.00,,,0.00,meteohub,2013-02-20 13:31:00,
2013-02-20 08:36:00,21.4,18.9,29.74,WNW,292,2.0,8.0,90,0.00,,,0.00,meteohub,2013-02-20 13:36:00,
2013-02-20 08:41:00,21.4,18.9,29.74,ENE,63,1.0,8.0,90,0.00,,,0.00,meteohub,2013-02-20 13:41:00,
2013-02-20 08:46:00,20.1,18.0,29.74,WNW,282,6.0,7.0,91,0.00,,,0.00,meteohub,2013-02-20 13:46:00,
2013-02-20 08:51:00,20.5,18.3,29.75,WSW,255,6.0,10.0,91,0.00,,,0.00,meteohub,2013-02-20 13:51:00,
2013-02-20 08:56:00,20.5,18.0,29.74,West,266,6.0,11.0,90,0.00,,,0.00,meteohub,2013-02-20 13:56:00,
2013-02-20 09:01:00,20.5,18.0,29.74,SW,226,10.0,12.0,90,0.00,,,0.00,meteohub,2013-02-20 14:01:00,
2013-02-20 09:06:00,20.3,17.8,29.74,WSW,255,5.0,14.0,90,0.00,,,0.00,meteohub,2013-02-20 14:06:00,
2013-02-20 09:12:00,20.1,17.6,29.74,West,266,6.0,15.0,90,0.00,,,0.00,meteohub,2013-02-20 14:12:00,
2013-02-20 09:17:00,20.1,17.6,29.74,West,267,6.0,15.0,90,0.00,,,0.00,meteohub,2013-02-20 14:17:00,
2013-02-20 09:22:00,20.1,17.6,29.73,West,270,6.0,18.0,90,0.00,,,0.00,meteohub,2013-02-20 14:22:00,
2013-02-20 09:27:00,20.3,17.8,29.73,SW,230,11.0,18.0,90,0.00,,,0.00,meteohub,2013-02-20 14:27:00,
2013-02-20 09:32:00,20.5,18.0,29.73,West,260,5.0,18.0,90,0.00,,,0.00,meteohub,2013-02-20 14:32:00,
2013-02-20 09:37:00,20.3,17.8,29.74,WSW,256,6.0,15.0,90,0.00,,,0.00,meteohub,2013-02-20 14:37:00,
2013-02-20 09:42:00,20.1,17.6,29.74,WSW,246,7.0,15.0,90,0.00,,,0.00,meteohub,2013-02-20 14:42:00,
2013-02-20 09:47:00,20.1,18.0,29.74,SSW,201,8.0,13.0,91,0.00,,,0.00,meteohub,2013-02-20 14:47:00,
2013-02-20 09:52:00,19.9,17.8,29.74,West,266,4.0,13.0,91,0.00,,,0.00,meteohub,2013-02-20 14:52:00,
2013-02-20 09:57:00,20.1,18.0,29.75,WSW,249,6.0,13.0,91,0.00,,,0.00,meteohub,2013-02-20 14:57:00,
2013-02-20 10:02:00,20.3,18.3,29.75,WSW,240,4.0,12.0,92,0.00,,,0.00,meteohub,2013-02-20 15:02:00,
2013-02-20 10:07:00,20.1,18.0,29.75,WNW,284,3.0,12.0,91,0.00,,,0.00,meteohub,2013-02-20 15:07:00,
2013-02-20 10:12:00,20.3,18.1,29.75,WSW,250,5.0,12.0,91,0.00,,,0.00,meteohub,2013-02-20 15:12:00,
2013-02-20 10:17:00,20.5,18.3,29.75,WSW,254,4.0,12.0,91,0.00,,,0.00,meteohub,2013-02-20 15:17:00,
2013-02-20 10:22:00,20.8,18.7,29.75,West,275,3.0,12.0,91,0.00,,,0.00,meteohub,2013-02-20 15:22:00,
2013-02-20 10:27:00,20.8,18.3,29.75,West,271,5.0,11.0,90,0.00,,,0.00,meteohub,2013-02-20 15:27:00,
2013-02-20 10:32:00,20.7,18.1,29.75,West,276,4.0,13.0,90,0.00,,,0.00,meteohub,2013-02-20 15:32:00,
2013-02-20 10:37:00,20.7,18.5,29.75,SW,219,7.0,13.0,91,0.00,,,0.00,meteohub,2013-02-20 15:37:00,
2013-02-20 10:42:00,20.7,18.5,29.75,West,277,4.0,13.0,91,0.00,,,0.00,meteohub,2013-02-20 15:42:00,
2013-02-20 10:47:00,20.8,18.3,29.75,WSW,254,3.0,11.0,90,0.00,,,0.00,meteohub,2013-02-20 15:47:00,
2013-02-20 10:52:00,20.8,18.3,29.76,WNW,288,4.0,11.0,90,0.00,,,0.00,meteohub,2013-02-20 15:52:00,
2013-02-20 10:57:00,20.8,18.1,29.75,SW,232,7.0,11.0,89,0.00,,,0.00,meteohub,2013-02-20 15:57:00,
2013-02-20 11:02:00,20.8,18.3,29.75,West,260,4.0,11.0,90,0.00,,,0.00,meteohub,2013-02-20 16:02:00,
2013-02-20 11:07:00,20.8,18.3,29.75,West,265,4.0,11.0,90,0.00,,,0.00,meteohub,2013-02-20 16:07:00,
2013-02-20 11:12:00,21.2,19.0,29.75,WNW,284,8.0,11.0,91,0.00,,,0.00,meteohub,2013-02-20 16:12:00,
2013-02-20 11:17:00,21.0,18.5,29.76,WNW,286,8.0,11.0,90,0.00,,,0.00,meteohub,2013-02-20 16:17:00,
2013-02-20 11:22:00,20.8,18.3,29.76,West,272,4.0,12.0,90,0.00,,,0.00,meteohub,2013-02-20 16:22:00,
2013-02-20 11:27:00,20.7,18.5,29.76,WNW,286,10.0,12.0,91,0.00,,,0.00,meteohub,2013-02-20 16:27:00,
2013-02-20 11:32:00,20.7,18.5,29.76,West,281,4.0,10.0,91,0.00,,,0.00,meteohub,2013-02-20 16:32:00,
2013-02-20 11:37:00,20.5,18.3,29.76,West,279,6.0,10.0,91,0.00,,,0.00,meteohub,2013-02-20 16:37:00,
2013-02-20 11:42:00,20.1,18.1,29.76,WSW,257,6.0,10.0,92,0.00,,,0.00,meteohub,2013-02-20 16:42:00,
2013-02-20 11:47:00,19.9,18.0,29.77,West,271,5.0,11.0,92,0.00,,,0.00,meteohub,2013-02-20 16:47:00,
2013-02-20 11:52:00,19.8,17.8,29.76,West,273,7.0,11.0,92,0.00,,,0.00,meteohub,2013-02-20 16:52:00,
2013-02-20 11:57:00,19.8,18.1,29.77,WSW,255,5.0,13.0,93,0.00,,,0.00,meteohub,2013-02-20 16:57:00,
2013-02-20 12:02:00,19.8,18.1,29.77,West,266,5.0,13.0,93,0.00,,,0.00,meteohub,2013-02-20 17:02:00,
2013-02-20 12:07:00,19.9,18.3,29.77,WSW,252,4.0,13.0,93,0.00,,,0.00,meteohub,2013-02-20 17:07:00,
2013-02-20 12:12:00,19.9,18.3,29.77,WNW,284,4.0,10.0,93,0.00,,,0.00,meteohub,2013-02-20 17:12:00,
2013-02-20 12:17:00,20.1,18.5,29.77,West,264,3.0,9.0,93,0.00,,,0.00,meteohub,2013-02-20 17:17:00,
2013-02-20 12:22:00,20.3,18.7,29.77,WNW,290,8.0,9.0,93,0.00,,,0.00,meteohub,2013-02-20 17:22:00,
2013-02-20 12:27:00,20.1,18.5,29.77,West,259,3.0,11.0,93,0.00,,,0.00,meteohub,2013-02-20 17:27:00,
2013-02-20 12:32:00,19.9,18.3,29.77,West,263,4.0,11.0,93,0.00,,,0.00,meteohub,2013-02-20 17:32:00,
2013-02-20 12:37:00,19.9,18.3,29.77,WNW,290,5.0,11.0,93,0.00,,,0.00,meteohub,2013-02-20 17:37:00,
2013-02-20 12:42:00,20.1,18.5,29.77,WSW,256,3.0,10.0,93,0.00,,,0.00,meteohub,2013-02-20 17:42:00,
2013-02-20 12:47:00,20.1,18.5,29.76,WNW,302,7.0,8.0,93,0.00,,,0.00,meteohub,2013-02-20 17:47:00,
2013-02-20 12:52:00,20.1,18.1,29.76,NW,311,5.0,9.0,92,0.00,,,0.00,meteohub,2013-02-20 17:52:00,
2013-02-20 12:57:00,20.3,18.1,29.77,West,265,5.0,14.0,91,0.00,,,0.00,meteohub,2013-02-20 17:57:00,
2013-02-20 13:02:00,20.1,18.0,29.77,WSW,251,6.0,14.0,91,0.00,,,0.00,meteohub,2013-02-20 18:02:00,
2013-02-20 13:07:00,20.1,18.0,29.77,West,263,6.0,14.0,91,0.00,,,0.00,meteohub,2013-02-20 18:07:00,
2013-02-20 13:12:00,20.3,18.3,29.77,WSW,239,8.0,12.0,92,0.00,,,0.00,meteohub,2013-02-20 18:12:00,
2013-02-20 13:17:00,20.1,18.1,29.77,WSW,256,4.0,12.0,92,0.00,,,0.00,meteohub,2013-02-20 18:17:00,
2013-02-20 13:22:00,20.1,18.1,29.77,West,268,3.0,12.0,92,0.00,,,0.00,meteohub,2013-02-20 18:22:00,
2013-02-20 13:27:00,20.1,18.1,29.77,West,264,4.0,9.0,92,0.00,,,0.00,meteohub,2013-02-20 18:27:00,
2013-02-20 13:32:00,20.1,18.1,29.77,West,267,6.0,8.0,92,0.00,,,0.00,meteohub,2013-02-20 18:32:00,
2013-02-20 13:37:00,20.1,18.1,29.77,West,263,5.0,10.0,92,0.00,,,0.00,meteohub,2013-02-20 18:37:00,
2013-02-20 13:42:00,20.5,18.5,29.77,West,262,3.0,10.0,92,0.00,,,0.00,meteohub,2013-02-20 18:42:00,
2013-02-20 13:47:00,20.7,18.7,29.76,WSW,257,4.0,10.0,92,0.00,,,0.00,meteohub,2013-02-20 18:47:00,
2013-02-20 13:52:00,20.7,18.5,29.77,WNW,284,5.0,10.0,91,0.00,,,0.00,meteohub,2013-02-20 18:52:00,
2013-02-20 13:57:00,20.7,18.5,29.77,West,275,3.0,10.0,91,0.00,,,0.00,meteohub,2013-02-20 18:57:00,
2013-02-20 14:02:00,20.7,18.5,29.77,West,273,3.0,10.0,91,0.00,,,0.00,meteohub,2013-02-20 19:02:00,
2013-02-20 14:07:00,20.5,18.3,29.77,West,275,5.0,10.0,91,0.00,,,0.00,meteohub,2013-02-20 19:07:00,
2013-02-20 14:12:00,20.3,18.1,29.78,WSW,247,7.0,11.0,91,0.00,,,0.00,meteohub,2013-02-20 19:12:00,
2013-02-20 14:17:00,20.1,18.0,29.77,West,275,4.0,11.0,91,0.00,,,0.00,meteohub,2013-02-20 19:17:00,
2013-02-20 14:22:00,20.1,18.1,29.77,WSW,245,6.0,11.0,92,0.00,,,0.00,meteohub,2013-02-20 19:22:00,
2013-02-20 14:27:00,20.3,18.1,29.78,SW,228,5.0,10.0,91,0.00,,,0.00,meteohub,2013-02-20 19:27:00,
2013-02-20 14:32:00,20.1,18.0,29.78,WSW,249,4.0,10.0,91,0.00,,,0.00,meteohub,2013-02-20 19:32:00,
2013-02-20 14:37:00,20.1,18.0,29.78,West,280,4.0,12.0,91,0.00,,,0.00,meteohub,2013-02-20 19:37:00,
2013-02-20 14:42:00,19.9,17.8,29.78,West,268,6.0,12.0,91,0.00,,,0.00,meteohub,2013-02-20 19:42:00,
2013-02-20 14:47:00,20.1,18.0,29.78,West,275,8.0,12.0,91,0.00,,,0.00,meteohub,2013-02-20 19:47:00,
2013-02-20 14:52:00,20.1,17.6,29.78,West,265,5.0,12.0,90,0.00,,,0.00,meteohub,2013-02-20 19:52:00,
2013-02-20 14:57:00,20.1,17.6,29.78,WSW,250,3.0,12.0,90,0.00,,,0.00,meteohub,2013-02-20 19:57:00,
2013-02-20 15:02:00,19.9,17.8,29.78,SW,223,10.0,12.0,91,0.00,,,0.00,meteohub,2013-02-20 20:02:00,
2013-02-20 15:07:00,19.6,17.4,29.78,West,259,4.0,12.0,91,0.00,,,0.00,meteohub,2013-02-20 20:07:00,
2013-02-20 15:12:00,19.4,17.4,29.78,West,265,8.0,12.0,92,0.00,,,0.00,meteohub,2013-02-20 20:12:00,
2013-02-20 15:17:00,19.6,17.6,29.78,West,268,5.0,14.0,92,0.00,,,0.00,meteohub,2013-02-20 20:17:00,
2013-02-20 15:22:00,19.8,17.8,29.78,West,279,4.0,14.0,92,0.00,,,0.00,meteohub,2013-02-20 20:22:00,
2013-02-20 15:27:00,19.9,17.8,29.78,West,270,7.0,14.0,91,0.00,,,0.00,meteohub,2013-02-20 20:27:00,
2013-02-20 15:32:00,19.9,17.4,29.79,WNW,287,6.0,14.0,90,0.00,,,0.00,meteohub,2013-02-20 20:32:00,
2013-02-20 15:37:00,20.1,17.4,29.79,WNW,292,5.0,14.0,89,0.00,,,0.00,meteohub,2013-02-20 20:37:00,
2013-02-20 15:42:00,21.0,18.0,29.80,NW,313,0.0,14.0,88,0.00,,,0.00,meteohub,2013-02-20 20:42:00,
2013-02-20 15:47:00,21.0,18.0,29.80,NNE,15,0.0,11.0,88,0.00,,,0.00,meteohub,2013-02-20 20:47:00,
2013-02-20 15:52:00,21.0,18.0,29.80,NNE,21,0.0,10.0,88,0.00,,,0.00,meteohub,2013-02-20 20:52:00,
2013-02-20 15:57:00,20.8,18.1,29.80,West,262,0.0,3.0,89,0.00,,,0.00,meteohub,2013-02-20 20:57:00,
2013-02-20 16:02:00,20.8,18.1,29.79,West,263,0.0,4.0,89,0.00,,,0.00,meteohub,2013-02-20 21:02:00,
2013-02-20 16:07:00,20.8,18.1,29.80,West,276,0.0,4.0,89,0.00,,,0.00,meteohub,2013-02-20 21:07:00,
2013-02-20 16:12:00,20.8,18.1,29.80,WNW,294,0.0,3.0,89,0.00,,,0.00,meteohub,2013-02-20 21:12:00,
2013-02-20 16:17:00,20.7,18.1,29.81,West,267,1.0,3.0,90,0.00,,,0.00,meteohub,2013-02-20 21:17:00,
2013-02-20 16:22:00,20.7,18.1,29.80,WSW,244,0.0,3.0,90,0.00,,,0.00,meteohub,2013-02-20 21:22:00,
2013-02-20 16:27:00,20.5,18.0,29.80,NW,324,0.0,3.0,90,0.00,,,0.00,meteohub,2013-02-20 21:27:00,
2013-02-20 16:32:00,20.5,18.0,29.81,West,279,0.0,3.0,90,0.00,,,0.00,meteohub,2013-02-20 21:32:00,
2013-02-20 16:37:00,20.5,18.0,29.81,NW,325,0.0,3.0,90,0.00,,,0.00,meteohub,2013-02-20 21:37:00,
2013-02-20 16:43:00,20.3,17.8,29.81,North,11,1.0,2.0,90,0.00,,,0.00,meteohub,2013-02-20 21:43:00,
2013-02-20 16:48:00,20.1,18.0,29.81,WNW,290,0.0,4.0,91,0.00,,,0.00,meteohub,2013-02-20 21:48:00,
2013-02-20 16:53:00,19.9,17.8,29.81,NW,311,0.0,4.0,91,0.00,,,0.00,meteohub,2013-02-20 21:53:00,
2013-02-20 16:58:00,19.9,17.8,29.81,WSW,243,2.0,4.0,91,0.00,,,0.00,meteohub,2013-02-20 21:58:00,
2013-02-20 17:03:00,19.9,17.8,29.81,WNW,301,1.0,3.0,91,0.00,,,0.00,meteohub,2013-02-20 22:03:00,
2013-02-20 17:08:00,19.9,17.4,29.82,West,279,0.0,3.0,90,0.00,,,0.00,meteohub,2013-02-20 22:08:00,
2013-02-20 17:13:00,19.8,17.1,29.82,WNW,282,2.0,3.0,89,0.00,,,0.00,meteohub,2013-02-20 22:13:00,
2013-02-20 17:18:00,19.0,16.9,29.82,SW,236,7.0,7.0,91,0.00,,,0.00,meteohub,2013-02-20 22:18:00,
2013-02-20 17:23:00,19.0,16.9,29.83,WSW,239,7.0,10.0,91,0.00,,,0.00,meteohub,2013-02-20 22:23:00,
2013-02-20 17:28:00,18.9,16.7,29.83,WSW,247,10.0,13.0,91,0.00,,,0.00,meteohub,2013-02-20 22:28:00,
2013-02-20 17:33:00,18.9,16.3,29.82,West,262,5.0,13.0,90,0.00,,,0.00,meteohub,2013-02-20 22:33:00,
2013-02-20 17:38:00,18.9,16.3,29.83,SW,229,6.0,16.0,90,0.00,,,0.00,meteohub,2013-02-20 22:38:00,
2013-02-20 17:43:00,18.9,16.3,29.83,WSW,248,5.0,16.0,90,0.00,,,0.00,meteohub,2013-02-20 22:43:00,
2013-02-20 17:48:00,18.9,16.3,29.83,West,271,8.0,13.0,90,0.00,,,0.00,meteohub,2013-02-20 22:48:00,
2013-02-20 17:53:00,18.9,16.2,29.83,SW,229,6.0,13.0,89,0.00,,,0.00,meteohub,2013-02-20 22:53:00,
2013-02-20 17:58:00,18.9,16.2,29.83,West,272,5.0,14.0,89,0.00,,,0.00,meteohub,2013-02-20 22:58:00,
2013-02-20 18:03:00,18.9,16.2,29.84,West,269,4.0,14.0,89,0.00,,,0.00,meteohub,2013-02-20 23:03:00,
2013-02-20 18:08:00,18.9,16.2,29.84,WSW,242,8.0,14.0,89,0.00,,,0.00,meteohub,2013-02-20 23:08:00,
2013-02-20 18:13:00,18.9,16.2,29.84,WSW,254,4.0,14.0,89,0.00,,,0.00,meteohub,2013-02-20 23:13:00,
2013-02-20 18:18:00,18.9,16.2,29.84,WSW,240,5.0,14.0,89,0.00,,,0.00,meteohub,2013-02-20 23:18:00,
2013-02-20 18:23:00,18.7,16.0,29.84,WSW,238,10.0,14.0,89,0.00,,,0.00,meteohub,2013-02-20 23:23:00,
2013-02-20 18:28:00,18.5,15.8,29.84,SW,229,7.0,16.0,89,0.00,,,0.00,meteohub,2013-02-20 23:28:00,
2013-02-20 18:33:00,18.3,15.8,29.84,WSW,258,12.0,16.0,90,0.00,,,0.00,meteohub,2013-02-20 23:33:00,
2013-02-20 18:38:00,18.3,15.8,29.85,West,279,7.0,16.0,90,0.00,,,0.00,meteohub,2013-02-20 23:38:00,
2013-02-20 18:43:00,18.3,15.8,29.85,WNW,283,8.0,15.0,90,0.00,,,0.00,meteohub,2013-02-20 23:43:00,
2013-02-20 18:48:00,18.1,16.0,29.85,West,268,8.0,14.0,91,0.00,,,0.00,meteohub,2013-02-20 23:48:00,
2013-02-20 18:53:00,18.1,16.0,29.85,West,272,7.0,14.0,91,0.00,,,0.00,meteohub,2013-02-20 23:53:00,
2013-02-20 18:58:00,18.1,16.0,29.85,West,261,7.0,14.0,91,0.00,,,0.00,meteohub,2013-02-20 23:58:00,
2013-02-20 19:03:00,18.1,16.0,29.85,WSW,258,8.0,14.0,91,0.00,,,0.00,meteohub,2013-02-21 00:03:00,
2013-02-20 19:08:00,18.1,16.0,29.85,WSW,250,10.0,15.0,91,0.00,,,0.00,meteohub,2013-02-21 00:08:00,
2013-02-20 19:13:00,18.1,16.0,29.85,WSW,249,8.0,15.0,91,0.00,,,0.00,meteohub,2013-02-21 00:13:00,
2013-02-20 19:19:00,18.1,16.0,29.85,WSW,248,9.0,15.0,91,0.00,,,0.00,meteohub,2013-02-21 00:19:00,
2013-02-20 19:24:00,18.3,15.8,29.86,West,271,7.0,15.0,90,0.00,,,0.00,meteohub,2013-02-21 00:24:00,
2013-02-20 19:29:00,18.3,15.8,29.85,WSW,245,11.0,15.0,90,0.00,,,0.00,meteohub,2013-02-21 00:29:00,
2013-02-20 19:34:00,18.5,15.8,29.85,WNW,290,9.0,15.0,89,0.00,,,0.00,meteohub,2013-02-21 00:34:00,
2013-02-20 19:39:00,18.7,15.8,29.85,WSW,241,12.0,15.0,88,0.00,,,0.00,meteohub,2013-02-21 00:39:00,
2013-02-20 19:44:00,18.5,15.6,29.86,West,277,12.0,15.0,88,0.00,,,0.00,meteohub,2013-02-21 00:44:00,
2013-02-20 19:49:00,18.5,15.6,29.86,West,269,7.0,15.0,88,0.00,,,0.00,meteohub,2013-02-21 00:49:00,
2013-02-20 19:54:00,18.5,15.6,29.86,WSW,254,9.0,16.0,88,0.00,,,0.00,meteohub,2013-02-21 00:54:00,
2013-02-20 19:59:00,18.5,15.6,29.86,West,267,7.0,16.0,88,0.00,,,0.00,meteohub,2013-02-21 00:59:00,
2013-02-20 20:04:00,18.5,15.6,29.86,West,263,7.0,17.0,88,0.00,,,0.00,meteohub,2013-02-21 01:04:00,
2013-02-20 20:09:00,18.3,15.4,29.86,WSW,253,7.0,17.0,88,0.00,,,0.00,meteohub,2013-02-21 01:09:00,
2013-02-20 20:14:00,18.3,15.4,29.86,West,264,5.0,17.0,88,0.00,,,0.00,meteohub,2013-02-21 01:14:00,
2013-02-20 20:19:00,18.3,15.4,29.86,West,262,6.0,14.0,88,0.00,,,0.00,meteohub,2013-02-21 01:19:00,
2013-02-20 20:24:00,18.5,15.8,29.86,WSW,251,11.0,16.0,89,0.00,,,0.00,meteohub,2013-02-21 01:24:00,
2013-02-20 20:29:00,18.3,15.6,29.87,West,270,5.0,16.0,89,0.00,,,0.00,meteohub,2013-02-21 01:29:00,
2013-02-20 20:34:00,18.5,15.8,29.87,WSW,257,6.0,16.0,89,0.00,,,0.00,meteohub,2013-02-21 01:34:00,
2013-02-20 20:39:00,18.3,15.6,29.87,West,278,6.0,15.0,89,0.00,,,0.00,meteohub,2013-02-21 01:39:00,
2013-02-20 20:44:00,18.5,15.8,29.86,WNW,302,7.0,16.0,89,0.00,,,0.00,meteohub,2013-02-21 01:44:00,
2013-02-20 20:49:00,18.5,15.8,29.86,WSW,250,9.0,16.0,89,0.00,,,0.00,meteohub,2013-02-21 01:49:00,
2013-02-20 20:54:00,18.5,15.6,29.87,West,259,4.0,16.0,88,0.00,,,0.00,meteohub,2013-02-21 01:54:00,
2013-02-20 20:59:00,18.5,15.6,29.87,West,281,8.0,16.0,88,0.00,,,0.00,meteohub,2013-02-21 01:59:00,
2013-02-20 21:04:00,18.5,15.6,29.87,WSW,258,6.0,16.0,88,0.00,,,0.00,meteohub,2013-02-21 02:04:00,
2013-02-20 21:09:00,18.5,15.6,29.88,WNW,284,5.0,16.0,88,0.00,,,0.00,meteohub,2013-02-21 02:09:00,
2013-02-20 21:14:00,18.7,15.8,29.88,West,280,11.0,16.0,88,0.00,,,0.00,meteohub,2013-02-21 02:14:00,
2013-02-20 21:19:00,18.7,15.8,29.88,WSW,252,10.0,16.0,88,0.00,,,0.00,meteohub,2013-02-21 02:19:00,
2013-02-20 21:24:00,18.7,15.4,29.87,WSW,238,12.0,14.0,87,0.00,,,0.00,meteohub,2013-02-21 02:24:00,
2013-02-20 21:29:00,18.7,15.4,29.87,West,265,5.0,17.0,87,0.00,,,0.00,meteohub,2013-02-21 02:29:00,
2013-02-20 21:34:00,18.9,15.6,29.87,WNW,293,10.0,17.0,87,0.00,,,0.00,meteohub,2013-02-21 02:34:00,
2013-02-20 21:39:00,18.9,15.4,29.87,West,271,8.0,17.0,86,0.00,,,0.00,meteohub,2013-02-21 02:39:00,
2013-02-20 21:44:00,18.9,15.4,29.87,WNW,290,8.0,16.0,86,0.00,,,0.00,meteohub,2013-02-21 02:44:00,
2013-02-20 21:49:00,18.9,15.4,29.87,West,263,5.0,16.0,86,0.00,,,0.00,meteohub,2013-02-21 02:49:00,
2013-02-20 21:54:00,18.9,15.1,29.87,West,277,14.0,16.0,85,0.00,,,0.00,meteohub,2013-02-21 02:54:00,
2013-02-20 21:59:00,18.9,15.1,29.88,West,259,12.0,14.0,85,0.00,,,0.00,meteohub,2013-02-21 02:59:00,
2013-02-20 22:04:00,18.9,15.1,29.88,WSW,243,7.0,17.0,85,0.00,,,0.00,meteohub,2013-02-21 03:04:00,
2013-02-20 22:09:00,18.9,15.1,29.87,West,263,11.0,17.0,85,0.00,,,0.00,meteohub,2013-02-21 03:09:00,
2013-02-20 22:14:00,18.9,15.1,29.88,WNW,287,16.0,20.0,85,0.00,,,0.00,meteohub,2013-02-21 03:14:00,
2013-02-20 22:20:00,18.9,14.9,29.88,WSW,248,13.0,20.0,84,0.00,,,0.00,meteohub,2013-02-21 03:20:00,
2013-02-20 22:24:00,18.9,14.9,29.88,West,274,8.0,20.0,84,0.00,,,0.00,meteohub,2013-02-21 03:24:00,
2013-02-20 22:30:00,19.0,15.1,29.88,West,263,12.0,16.0,84,0.00,,,0.00,meteohub,2013-02-21 03:30:00,
2013-02-20 22:35:00,19.0,15.1,29.88,WSW,252,7.0,16.0,84,0.00,,,0.00,meteohub,2013-02-21 03:35:00,
2013-02-20 22:40:00,18.9,14.9,29.88,SW,229,12.0,18.0,84,0.00,,,0.00,meteohub,2013-02-21 03:40:00,
2013-02-20 22:45:00,18.9,14.9,29.88,West,259,8.0,18.0,84,0.00,,,0.00,meteohub,2013-02-21 03:45:00,
2013-02-20 22:50:00,18.9,14.9,29.89,WSW,250,9.0,19.0,84,0.00,,,0.00,meteohub,2013-02-21 03:50:00,
2013-02-20 22:55:00,18.7,14.7,29.88,WSW,241,7.0,19.0,84,0.00,,,0.00,meteohub,2013-02-21 03:55:00,
2013-02-20 23:00:00,18.5,14.7,29.88,West,266,11.0,19.0,85,0.00,,,0.00,meteohub,2013-02-21 04:00:00,
2013-02-20 23:05:00,18.3,14.5,29.88,West,262,5.0,17.0,85,0.00,,,0.00,meteohub,2013-02-21 04:05:00,
2013-02-20 23:10:00,18.3,14.5,29.88,WNW,287,13.0,17.0,85,0.00,,,0.00,meteohub,2013-02-21 04:10:00,
2013-02-20 23:15:00,18.1,14.7,29.88,West,279,7.0,21.0,86,0.00,,,0.00,meteohub,2013-02-21 04:15:00,
2013-02-20 23:20:00,18.1,14.9,29.88,West,266,5.0,21.0,87,0.00,,,0.00,meteohub,2013-02-21 04:20:00,
2013-02-20 23:25:00,18.1,14.7,29.88,WSW,242,9.0,23.0,86,0.00,,,0.00,meteohub,2013-02-21 04:25:00,
2013-02-20 23:30:00,18.1,14.9,29.88,West,259,11.0,23.0,87,0.00,,,0.00,meteohub,2013-02-21 04:30:00,
2013-02-20 23:35:00,18.1,14.9,29.89,West,279,7.0,21.0,87,0.00,,,0.00,meteohub,2013-02-21 04:35:00,
2013-02-20 23:40:00,18.1,14.9,29.89,West,267,9.0,21.0,87,0.00,,,0.00,meteohub,2013-02-21 04:40:00,
2013-02-20 23:45:00,18.0,14.7,29.90,West,266,10.0,22.0,87,0.00,,,0.00,meteohub,2013-02-21 04:45:00,
2013-02-20 23:50:00,18.0,14.7,29.89,WNW,284,16.0,22.0,87,0.00,,,0.00,meteohub,2013-02-21 04:50:00,
2013-02-20 23:55:00,18.0,14.7,29.90,West,277,11.0,23.0,87,0.00,,,0.00,meteohub,2013-02-21 04:55:00,